Location: Sungai Lasa
(2.4500°N, 113.4500°E)
Time: 04:48:41
(UTC+00:00)

CZ-2C R/B - Pass Details

Date: 03 February 2023
Orbit: 784 x 870 km, 98.3° (Epoch: 26 March)

Event Time Altitude Azimuth Distance (km) Brightness Sun altitude
Rises 21:31:51 0° 199° (SSW) 3,269 5.7 -17.0°
Reaches altitude 10° 21:34:57 10° 219° (SW) 2,339 4.8 -16.3°
Enters shadow 21:37:26 16° 248° (WSW) 1,933 4.1 -15.7°
